| time (UTC) | temp F | wind direction | speed MPH | gust MPH | rain 1hr in | rain 24hr in | rain mn in | humidity % | barometer mb |
| 20260503183624 | 70 | 51 | 1.0 | 4.0 | 0.00 | 0.00 | 0.00 | 53 | 1011.8 |
| 20260503182549 | 69 | 355 | 2.0 | 5.0 | 0.00 | 0.00 | 0.00 | 55 | 1011.9 |
| 20260503181610 | 69 | 338 | 2.0 | 5.0 | 0.00 | 0.00 | 0.00 | 54 | 1012.0 |
| 20260503180600 | 69 | 317 | 0.0 | 5.0 | 0.00 | 0.00 | 0.00 | 57 | 1012.1 |
| 20260503175608 | 67 | 323 | 2.0 | 5.0 | 0.00 | 0.00 | 0.00 | 58 | 1012.1 |
| 20260503174602 | 67 | 34 | 1.0 | 5.0 | 0.00 | 0.00 | 0.00 | 59 | 1012.1 |
| 20260503172400 | 67 | 46 | 2.0 | 7.0 | 0.00 | 0.00 | 0.00 | 57 | 1012.3 |
| 20260503171342 | 67 | 311 | 2.0 | 5.0 | 0.00 | 0.00 | 0.00 | 60 | 1012.3 |
| 20260503170348 | 66 | 30 | 2.0 | 5.0 | 0.00 | 0.00 | 0.00 | 58 | 1012.4 |
| 20260503160200 | 63 | 316 | 1.0 | 3.0 | 0.00 | 0.00 | 0.00 | 66 | 1012.9 |
| 20260503130526 | 55 | 27 | 0.0 | 0.0 | 0.00 | 0.00 | 0.00 | 83 | 1012.4 |
| 20260503110228 | 61 | 99 | 3.0 | 9.0 | 0.00 | 0.00 | 0.00 | 68 | 1012.5 |
| 20260503081603 | 61 | 117 | 0.0 | 0.0 | 0.00 | 0.00 | 0.00 | 57 | 1012.2 |
| 20260503080623 | 59 | 117 | 0.0 | 0.0 | 0.00 | 0.00 | 0.00 | 59 | 1012.3 |
| 20260503072326 | 61 | 112 | 0.0 | 0.0 | 0.00 | 0.00 | 0.00 | 60 | 1012.1 |
| 20260503071337 | 63 | 112 | 0.0 | 0.0 | 0.00 | 0.00 | 0.00 | 55 | 1012.1 |
| 20260503060201 | 59 | 133 | 0.0 | 0.0 | 0.00 | 0.00 | 0.00 | 68 | 1012.0 |
| 20260503054114 | 62 | 244 | 0.0 | 0.0 | 0.00 | 0.00 | 0.00 | 61 | 1012.0 |
| 20260503053049 | 63 | 227 | 0.0 | 0.0 | 0.00 | 0.00 | 0.00 | 60 | 1012.0 |
| 20260503050916 | 63 | 236 | 0.0 | 0.0 | 0.00 | 0.00 | 0.00 | 61 | 1012.0 |
| 20260503045916 | 63 | 236 | 0.0 | 0.0 | 0.00 | 0.00 | 0.00 | 60 | 1012.0 |
| 20260503044859 | 63 | 194 | 0.0 | 1.0 | 0.00 | 0.00 | 0.00 | 59 | 1011.9 |
| 20260503043920 | 63 | 194 | 0.0 | 0.0 | 0.00 | 0.00 | 0.00 | 58 | 1011.9 |
| 20260503042900 | 62 | 136 | 0.0 | 1.0 | 0.00 | 0.00 | 0.00 | 57 | 1011.8 |
| 20260503041917 | 64 | 136 | 0.0 | 1.0 | 0.00 | 0.00 | 0.00 | 55 | 1011.8 |
| 20260503040922 | 64 | 118 | 0.0 | 1.0 | 0.00 | 0.00 | 0.00 | 55 | 1011.7 |
| 20260503035937 | 65 | 124 | 0.0 | 2.0 | 0.00 | 0.00 | 0.00 | 54 | 1011.5 |
| 20260503034926 | 65 | 134 | 0.0 | 1.0 | 0.00 | 0.00 | 0.00 | 53 | 1011.4 |
| 20260503033911 | 65 | 201 | 0.0 | 2.0 | 0.00 | 0.00 | 0.00 | 54 | 1011.4 |
| 20260503032928 | 66 | 107 | 0.0 | 0.0 | 0.00 | 0.00 | 0.00 | 50 | 1011.2 |
| 20260503031921 | 67 | 38 | 0.0 | 0.0 | 0.00 | 0.00 | 0.00 | 48 | 1011.1 |
| 20260503030920 | 67 | 38 | 0.0 | 2.0 | 0.00 | 0.00 | 0.00 | 48 | 1011.1 |
| 20260503025932 | 68 | 34 | 0.0 | 2.0 | 0.00 | 0.00 | 0.00 | 45 | 1011.1 |
| 20260503024858 | 68 | 41 | 0.0 | 0.0 | 0.00 | 0.00 | 0.00 | 48 | 1011.1 |
| 20260503023920 | 69 | 57 | 0.0 | 0.0 | 0.00 | 0.00 | 0.00 | 48 | 1011.1 |
| 20260503022916 | 70 | 17 | 0.0 | 0.0 | 0.00 | 0.00 | 0.00 | 46 | 1011.1 |
| 20260503020731 | 70 | 46 | 0.0 | 2.0 | 0.00 | 0.00 | 0.00 | 47 | 1011.2 |
| 20260503015709 | 70 | 79 | 1.0 | 3.0 | 0.00 | 0.00 | 0.00 | 46 | 1011.2 |
| 20260503014640 | 70 | 40 | 2.0 | 6.0 | 0.00 | 0.00 | 0.00 | 48 | 1011.3 |
| 20260503013641 | 71 | 17 | 2.0 | 6.0 | 0.00 | 0.00 | 0.00 | 45 | 1011.3 |
| 20260503012654 | 72 | 13 | 2.0 | 6.0 | 0.00 | 0.00 | 0.00 | 43 | 1011.4 |
| 20260503011630 | 72 | 349 | 2.0 | 6.0 | 0.00 | 0.00 | 0.00 | 43 | 1011.4 |
| 20260503010604 | 73 | 51 | 2.0 | 6.0 | 0.00 | 0.00 | 0.00 | 42 | 1011.6 |
| 20260503004437 | 73 | 28 | 2.0 | 6.0 | 0.00 | 0.00 | 0.00 | 42 | 1011.7 |
| 20260503002341 | 73 | 14 | 2.0 | 6.0 | 0.00 | 0.00 | 0.00 | 42 | 1011.8 |
| 20260503001354 | 72 | 19 | 2.0 | 8.0 | 0.00 | 0.00 | 0.00 | 44 | 1011.9 |
| 20260503000338 | 72 | 38 | 3.0 | 8.0 | 0.00 | 0.00 | 0.00 | 43 | 1011.9 |
| 20260502234217 | 74 | 347 | 2.0 | 7.0 | 0.00 | 0.00 | 0.00 | 41 | 1012.1 |
| 20260502233150 | 73 | 325 | 2.0 | 8.0 | 0.00 | 0.00 | 0.00 | 42 | 1012.2 |
| 20260502232126 | 73 | 309 | 3.0 | 8.0 | 0.00 | 0.00 | 0.00 | 44 | 1012.4 |
| 20260502231100 | 73 | 9 | 4.0 | 14.0 | 0.00 | 0.00 | 0.00 | 42 | 1012.4 |
| 20260502230031 | 72 | 11 | 2.0 | 14.0 | 0.00 | 0.00 | 0.00 | 45 | 1012.6 |
| 20260502225005 | 72 | 279 | 3.0 | 11.0 | 0.00 | 0.00 | 0.00 | 48 | 1012.7 |
| 20260502224006 | 72 | 328 | 2.0 | 10.0 | 0.00 | 0.00 | 0.00 | 45 | 1012.8 |
| 20260502223013 | 72 | 61 | 3.0 | 7.0 | 0.00 | 0.00 | 0.00 | 48 | 1012.9 |
| 20260502222024 | 71 | 200 | 3.0 | 9.0 | 0.00 | 0.00 | 0.00 | 49 | 1013.1 |
| 20260502221019 | 71 | 86 | 3.0 | 9.0 | 0.00 | 0.00 | 0.00 | 50 | 1013.3 |
| 20260502215947 | 70 | 340 | 2.0 | 8.0 | 0.00 | 0.00 | 0.00 | 55 | 1013.4 |
| 20260502215009 | 69 | 34 | 2.0 | 8.0 | 0.00 | 0.00 | 0.00 | 54 | 1013.5 |
| 20260502212910 | 68 | 60 | 4.0 | 9.0 | 0.00 | 0.00 | 0.00 | 58 | 1013.8 |
| 20260502211923 | 68 | 0 | 4.0 | 9.0 | 0.00 | 0.00 | 0.00 | 58 | 1013.9 |
| 20260502210944 | 68 | 61 | 4.0 | 9.0 | 0.00 | 0.00 | 0.00 | 57 | 1014.1 |
| 20260502205932 | 67 | 14 | 4.0 | 9.0 | 0.00 | 0.00 | 0.00 | 58 | 1014.2 |
| 20260502204944 | 68 | 52 | 3.0 | 8.0 | 0.00 | 0.00 | 0.00 | 58 | 1014.2 |
| 20260502202852 | 66 | 20 | 3.0 | 8.0 | 0.00 | 0.00 | 0.00 | 61 | 1014.4 |
| 20260502200727 | 66 | 318 | 2.0 | 8.0 | 0.00 | 0.00 | 0.00 | 65 | 1014.5 |
| 20260502193354 | 64 | 86 | 3.0 | 9.0 | 0.00 | 0.00 | 0.00 | 68 | 1014.8 |
| 20260502192408 | 63 | 30 | 5.0 | 9.0 | 0.00 | 0.00 | 0.00 | 71 | 1014.9 |
| 20260502191357 | 63 | 27 | 3.0 | 8.0 | 0.00 | 0.00 | 0.00 | 70 | 1015.0 |
| 20260502190339 | 62 | 71 | 3.0 | 8.0 | 0.00 | 0.00 | 0.00 | 71 | 1015.0 |
| 20260502185310 | 62 | 42 | 3.0 | 9.0 | 0.00 | 0.00 | 0.00 | 73 | 1015.2 |
| 20260502184307 | 62 | 14 | 4.0 | 9.0 | 0.00 | 0.00 | 0.00 | 73 | 1015.3 |